Fort Benning, AL

3:40 AM CDT on August 17, 2017 (GMT -0500)
Lawson Army Air Field

Weather History for KLSF - July, 2013

Change the Weather History Date:

Wednesday, July 24, 2013

  Actual Average Record
Temperature  
Mean Temperature 78 °F -  
Max Temperature 87 °F 89 °F 100 °F (2010)
Min Temperature 69 °F 68 °F 48 °F (2006)
Cooling Degree Days 12    
Growing Degree Days 28 (Base 50)    
Moisture  
Dew Point 72 °F    
Average Humidity 93    
Maximum Humidity 100    
Minimum Humidity 70    
Precipitation  
Precipitation 0.56 in - - ()
Sea Level Pressure  
Sea Level Pressure 29.88 in    
Wind  
Wind Speed 5 mph (WNW)    
Max Wind Speed 26 mph    
Max Gust Speed 37 mph    
Visibility 9 miles    
Events Fog , Rain , Thunderstorm    
Averages and records for this station are not official NWS values.
T = Trace of Precipitation, MM = Missing Value Source: NWS Daily Summary

Daily Weather History Graph

Daily Weather History Graph

Search for Another Location

Airport or City:

Trip Planner

Search our weather history database for the weather conditions in past years. The results will help you decide how hot, cold, wet, or windy it might be!

Date:

Astronomy

Jul. 24, 2013 Rise Set
Actual Time 6:49 AM EDT 8:43 PM EDT
Civil Twilight 6:22 AM EDT 9:10 PM EDT
Nautical Twilight 5:49 AM EDT 9:43 PM EDT
Astronomical Twilight 5:14 AM EDT 10:18 PM EDT
Moon 10:01 PM EDT (7/24) 8:57 AM EDT (7/24)
Length of Visible Light 14h 47m
Length of Day
13h 53m
Waning Gibbous, 95% of the Moon is Illuminated
Jul 24
Waning Gibbous
Jul 29
Last Quarter
Aug 6
New
Aug 14
First Quarter
Aug 20
Full

Hourly Weather History & Observations

Time (EDT) Temp. Heat Index Dew Point Humidity Pressure Visibility Wind Dir Wind Speed Gust Speed Precip Events Conditions
12:13 AM 69.8 °F - 69.8 °F 100% 29.91 in 10.0 mi Variable 2.3 mph - N/A   Mostly Cloudy
12:28 AM 69.8 °F - 69.8 °F 100% 29.91 in 10.0 mi WNW 2.3 mph - N/A   Mostly Cloudy
12:58 AM 70.0 °F - 69.8 °F 99% 29.91 in 10.0 mi Variable 2.3 mph - N/A   Mostly Cloudy
1:03 AM 69.8 °F - 69.8 °F 100% 29.91 in 10.0 mi NW 2.3 mph - N/A   Overcast
1:43 AM 69.8 °F - 69.8 °F 100% 29.90 in 10.0 mi Variable 4.6 mph - N/A   Mostly Cloudy
1:53 AM 69.8 °F - 69.8 °F 100% 29.90 in 10.0 mi WNW 4.6 mph - N/A   Scattered Clouds
1:58 AM 69.8 °F - 69.4 °F 99% 29.91 in 10.0 mi Variable 1.2 mph - N/A   Scattered Clouds
2:58 AM 69.8 °F - 69.4 °F 99% 29.89 in 10.0 mi WSW 6.9 mph - N/A   Mostly Cloudy
3:08 AM 69.8 °F - 69.8 °F 100% 29.88 in 10.0 mi West 5.8 mph - N/A   Mostly Cloudy
3:23 AM 69.8 °F - 69.8 °F 100% 29.88 in 10.0 mi West 5.8 mph - N/A   Overcast
3:58 AM 70.3 °F - 70.0 °F 99% 29.88 in 10.0 mi West 3.5 mph - N/A   Overcast
4:03 AM 69.8 °F - 69.8 °F 100% 29.88 in 10.0 mi West 4.6 mph - N/A   Overcast
4:58 AM 70.5 °F - 70.2 °F 99% 29.87 in 10.0 mi West 4.6 mph - N/A   Overcast
5:58 AM 70.2 °F - 69.3 °F 97% 29.88 in 10.0 mi Variable 3.5 mph - N/A   Overcast
6:58 AM 70.0 °F - 69.3 °F 98% 29.91 in 10.0 mi West 2.3 mph - N/A   Overcast
7:08 AM 69.8 °F - 69.8 °F 100% 29.90 in 10.0 mi Variable 2.3 mph - N/A   Overcast
7:58 AM 70.9 °F - 70.0 °F 97% 29.90 in 10.0 mi NW 2.3 mph - N/A   Overcast
8:58 AM 72.1 °F - 70.3 °F 94% 29.91 in 10.0 mi WNW 4.6 mph - N/A   Overcast
9:58 AM 74.5 °F - 70.7 °F 88% 29.91 in 10.0 mi WNW 3.5 mph - N/A   Mostly Cloudy
10:03 AM 75.2 °F - 71.6 °F 89% 29.90 in 10.0 mi Variable 4.6 mph - N/A   Scattered Clouds
10:23 AM 75.2 °F - 71.6 °F 89% 29.90 in 10.0 mi WSW 4.6 mph - N/A   Mostly Cloudy
10:58 AM 77.9 °F - 73.0 °F 85% 29.91 in 10.0 mi Variable 4.6 mph - N/A   Mostly Cloudy
11:33 AM 80.6 °F 85.4 °F 73.4 °F 79% 29.91 in 10.0 mi WNW 5.8 mph - N/A   Scattered Clouds
11:58 AM 81.3 °F 87.2 °F 74.7 °F 80% 29.91 in 10.0 mi Variable 2.3 mph - N/A   Partly Cloudy
12:58 PM 82.9 °F 90.5 °F 75.4 °F 78% 29.89 in 10.0 mi West 4.6 mph - N/A   Scattered Clouds
1:58 PM 83.8 °F 92.1 °F 75.6 °F 76% 29.87 in 10.0 mi Calm Calm - N/A   Mostly Cloudy
2:58 PM 86.5 °F 96.4 °F 75.6 °F 70% 29.84 in 10.0 mi WNW 3.5 mph - N/A   Scattered Clouds
3:38 PM 84.2 °F 90.9 °F 73.4 °F 70% 29.86 in 10.0 mi NW 26.5 mph 35.7 mph N/A Rain , Thunderstorm Light Rain
3:43 PM 77.0 °F - 71.6 °F 83% 29.87 in 0.8 mi NW 20.7 mph 36.8 mph N/A Rain , Thunderstorm Heavy Thunderstorms and Rain
3:48 PM 75.2 °F - 71.6 °F 89% 29.87 in 0.5 mi NW 19.6 mph 36.8 mph N/A Fog , Rain , Thunderstorm Heavy Thunderstorms and Rain
3:53 PM 73.4 °F - 71.6 °F 94% 29.86 in 0.5 mi NNW 15.0 mph 27.6 mph N/A Fog , Rain , Thunderstorm Heavy Thunderstorms and Rain
3:58 PM 73.4 °F - 71.6 °F 94% 29.88 in 2.5 mi NNW 13.8 mph 27.6 mph 0.50 in Rain , Thunderstorm Heavy Thunderstorms and Rain
4:03 PM 73.4 °F - 71.6 °F 94% 29.87 in 8.0 mi NNW 10.4 mph 21.9 mph N/A Rain , Thunderstorm Heavy Thunderstorms and Rain
4:08 PM 71.6 °F - 71.6 °F 100% 29.86 in 5.0 mi WNW 8.1 mph - N/A Rain , Thunderstorm Heavy Thunderstorms and Rain
4:13 PM 71.6 °F - 71.6 °F 100% 29.86 in 4.0 mi WNW 5.8 mph - N/A Rain , Thunderstorm Heavy Rain
4:23 PM 73.4 °F - 71.6 °F 94% 29.84 in 9.0 mi East 5.8 mph - N/A Rain , Thunderstorm Light Rain
4:41 PM 75.2 °F - 75.2 °F 100% 29.82 in 10.0 mi Variable 3.5 mph - N/A   Partly Cloudy
4:58 PM 75.9 °F - 75.0 °F 97% 29.83 in 10.0 mi SSE 5.8 mph - 0.06 in   Scattered Clouds
5:58 PM 76.6 °F - 74.1 °F 92% 29.86 in 10.0 mi Variable 6.9 mph - N/A   Scattered Clouds
6:03 PM 77.0 °F - 73.4 °F 89% 29.86 in 10.0 mi WSW 8.1 mph - N/A   Mostly Cloudy
6:08 PM 75.2 °F - 73.4 °F 94% 29.86 in 10.0 mi Variable 6.9 mph - N/A   Mostly Cloudy
6:28 PM 75.2 °F - 71.6 °F 89% 29.86 in 10.0 mi SW 5.8 mph - N/A   Scattered Clouds
6:58 PM 76.5 °F - 71.8 °F 85% 29.86 in 10.0 mi Variable 4.6 mph - N/A   Clear
7:58 PM 75.0 °F - 71.6 °F 89% 29.88 in 10.0 mi Variable 1.2 mph - N/A   Clear
8:58 PM 73.6 °F - 71.8 °F 94% 29.88 in 10.0 mi West 5.8 mph - N/A   Clear
9:58 PM 73.6 °F - 73.0 °F 98% 29.88 in 10.0 mi ENE 2.3 mph - N/A   Partly Cloudy
10:05 PM 73.4 °F - 73.4 °F 100% 29.87 in 10.0 mi Calm Calm - N/A Rain Light Rain
10:14 PM 73.4 °F - 73.4 °F 100% 29.86 in 10.0 mi South 1.2 mph - N/A   Partly Cloudy
10:51 PM 73.4 °F - 73.4 °F 100% 29.87 in 10.0 mi Calm Calm - N/A Rain Light Rain
10:55 PM 73.4 °F - 73.4 °F 100% 29.87 in 10.0 mi SSE 1.2 mph - N/A   Scattered Clouds
10:58 PM 72.9 °F - 72.5 °F 99% 29.87 in 10.0 mi South 1.2 mph - 0.00 in   Scattered Clouds
11:58 PM 72.5 °F - 72.1 °F 99% 29.87 in 10.0 mi Calm Calm - N/A   Mostly Cloudy